Murtala Muhammed International Airport

Airport
ICAO code: 
DNMM
IATA Code: 
LOS
Summary
ICAO Region: 
AFI
Territory: 
Location: 
Ikeja, Lagos State
Serving: 
Lagos
Elevation: 
135 ft
Coordinates: 
Aerial View: 
6° 34' 40.44" N, 3° 19' 17.616" E
Metar
Observation
DNMM 271900Z 18005KT 9999 TS FEW011 FEW020CB 27/25 Q1013 TEMPO 5000 -TSRA
Station
Lagos / Ikeja
Date/Time
2022-06-27 19:00:00
Wind direction
180°
Wind speed
05 kts
Lowest cloud amount
few clouds
Temperature
27°C
Dew point
25°C
Humidity
88%
QNH
1013 hPa
Weather condition
thunderstorm

International airport serving Lagos, Nigeria.

Climatology

Tropical Savanna climate (Köppen climate classification Aw)

Runways

Designator Length Width Surface Rops
18L/36R 2742 45 ASP Yes/Yes
18R/36L 3900 60 ASP Yes/Yes
Airport map: 
Aerial View: 

SKYbrary Partners:

Safety knowledge contributed by: